This is the latest recevied weather packets stored in our database for station/object DL9TK-10. If no packets are shown the sender has not sent any weather packets the latest 10 day(s).
| Time | Temp. | Humidity | Pressure | Rain* | Wind** | Luminosity | Snow |
|---|---|---|---|---|---|---|---|
| 1778182129 | 16.11° C | 34% | 1019.1 hPa | - | - | - | - |
| 1778181229 | 16.67° C | 33% | 1019 hPa | - | - | - | - |
| 1778180329 | 17.22° C | 33% | 1018.8 hPa | - | - | - | - |
| 1778179429 | 17.78° C | 32% | 1018.6 hPa | - | - | - | - |
| 1778178529 | 18.33° C | 31% | 1018.5 hPa | - | - | - | - |
| 1778177628 | 18.33° C | 30% | 1018.3 hPa | - | - | - | - |
| 1778176728 | 18.89° C | 29% | 1018.2 hPa | - | - | - | - |
| 1778175828 | 18.89° C | 28% | 1018.1 hPa | - | - | - | - |
| 1778174928 | 20° C | 28% | 1018 hPa | - | - | - | - |
| 1778174028 | 20° C | 27% | 1017.9 hPa | - | - | - | - |
| 1778173128 | 20° C | 27% | 1017.8 hPa | - | - | - | - |
| 1778172228 | 20° C | 27% | 1017.8 hPa | - | - | - | - |
| 1778171328 | 20° C | 27% | 1017.7 hPa | - | - | - | - |
| 1778170428 | 20.56° C | 26% | 1017.8 hPa | - | - | - | - |
| 1778169528 | 20.56° C | 27% | 1017.7 hPa | - | - | - | - |
| 1778168628 | 21.11° C | 26% | 1017.6 hPa | - | - | - | - |
| 1778167728 | 20.56° C | 26% | 1017.6 hPa | - | - | - | - |
| 1778166828 | 21.11° C | 26% | 1017.4 hPa | - | - | - | - |
| 1778165927 | 21.11° C | 26% | 1017.5 hPa | - | - | - | - |
| 1778165027 | 21.11° C | 27% | 1017.5 hPa | - | - | - | - |
| 1778164127 | 21.67° C | 27% | 1017.4 hPa | - | - | - | - |
| 1778163227 | 21.67° C | 26% | 1017.3 hPa | - | - | - | - |
| 1778162327 | 21.67° C | 27% | 1017.4 hPa | - | - | - | - |
| 1778161427 | 21.11° C | 27% | 1017.5 hPa | - | - | - | - |
| 1778160527 | 21.67° C | 26% | 1017.3 hPa | - | - | - | - |
* Rain since midnight (hover to see other rain measurements)
** Current wind speed in m/s (hover to see current wind gust speed)